Voltar ao catálogo

YAOGAN-30 X

AtivoMilitarVLEO
NORAD 48423·PAYLOAD·🇨🇳 China

Lançado May 6, 2021 de Xichang Satellite Launch Center

Loading…

Próximas Passagens (próximas 24 horas)

TLE

AtualizadoSource: Space-Track

Época: Sep 14, 2026, 13:57 UTC

1 48423U 21039A   26257.58130141  .00002100  00000-0  15493-3 0  9999
2 48423  34.9966 206.6430 0003143 107.0900 253.0153 15.03035285293004

Acompanhe YAOGAN-30 X em tempo real com AllMySat

Download on the App Store